Total_Precipitation_Accumulation
1.09 1.16 1.25 1.38 1.45 1.49 1.47 1.37 1.37 1.34 1.33 1.37 1.37 1.39 1.43 1.44 1.45 1.43 1.40 1.40 1.40 1.36 1.34 1.34 1.33 1.29 1.29 1.29 1.33 1.39 1.46 1.59 1.58 1.15 0.97 0.93 0.93 0.90 0.91 0.87 0.80 0.79 0.75
1.01 1.02 1.06 1.15 1.28 1.33 1.36 1.28 1.19 1.21 1.16 1.17 1.17 1.14 1.13 1.15 1.19 1.21 1.19 1.20 1.24 1.23 1.22 1.24 1.25 1.27 1.30 1.27 1.26 1.25 1.23 1.24 1.34 1.19 0.93 0.89 0.88 0.86 0.90 0.92 0.86 0.79 0.71
0.90 0.90 0.96 1.06 1.14 1.18 1.18 1.21 1.14 1.14 1.07 1.04 1.04 1.03 1.00 0.98 0.99 1.04 1.09 1.11 1.13 1.12 1.12 1.14 1.15 1.19 1.20 1.15 1.12 1.10 1.09 1.11 1.20 1.22 1.00 0.86 0.84 0.85 0.91 0.92 0.89 0.85 0.79
0.86 0.83 0.86 0.93 1.07 1.11 1.05 1.07 1.07 1.11 1.11 1.01 0.96 0.95 0.94 0.96 0.96 0.98 1.06 1.12 1.12 1.12 1.14 1.14 1.10 1.07 1.04 1.01 1.03 1.05 1.12 1.22 1.24 1.27 1.16 0.97 0.90 0.87 0.95 0.96 0.94 0.88 0.88
0.85 0.83 0.83 0.84 0.94 1.00 0.94 0.94 0.96 1.00 1.10 1.07 1.01 0.97 0.95 0.94 0.97 1.01 1.04 1.09 1.10 1.12 1.10 1.08 1.05 1.06 1.02 1.00 1.01 1.05 1.13 1.28 1.40 1.45 1.35 1.17 1.05 0.99 0.96 0.93 1.02 1.04 1.04
0.79 0.82 0.81 0.80 0.86 0.95 0.92 0.90 0.92 0.96 1.05 1.11 1.12 1.08 1.02 1.00 1.15 1.13 1.06 1.05 1.07 1.08 1.07 1.02 1.00 1.03 1.00 1.00 1.02 1.09 1.23 1.40 1.55 1.60 1.53 1.34 1.07 0.94 0.97 1.11 1.27 1.46 1.41
0.73 0.77 0.80 0.84 0.88 0.94 0.94 0.94 0.98 1.04 1.11 1.15 1.19 1.20 1.16 1.18 1.23 1.10 1.08 1.00 0.98 0.99 0.98 0.97 0.93 0.90 0.95 0.88 0.95 1.07 1.15 1.28 1.36 1.38 1.35 1.12 0.98 0.94 1.17 1.44 1.49 1.54 1.34
0.62 0.71 0.75 0.80 0.82 0.85 0.91 0.94 1.00 1.04 1.11 1.16 1.19 1.17 1.12 1.11 1.12 1.02 0.99 0.91 0.91 0.91 0.90 0.89 0.91 0.91 0.91 0.97 1.03 1.09 0.98 0.92 0.96 0.96 1.00 0.99 1.00 1.10 1.39 1.73 1.84 1.85 1.61
0.58 0.70 0.75 0.81 0.84 0.87 0.94 0.95 0.97 1.04 1.07 1.04 1.05 1.06 1.04 1.03 1.00 0.92 0.89 0.83 0.85 0.81 0.78 0.79 0.82 0.84 1.00 1.17 1.21 1.21 1.03 0.84 0.85 0.97 1.09 1.12 1.19 1.28 1.41 1.74 2.01 2.15 1.90
0.57 0.67 0.73 0.81 0.90 0.95 0.97 0.96 0.92 0.96 1.03 0.98 0.92 0.89 0.88 0.88 0.90 0.84 0.82 0.78 0.81 0.78 0.74 0.74 0.83 0.85 1.01 1.16 1.11 1.16 1.12 0.94 0.90 0.94 0.99 1.04 1.02 1.10 1.33 1.50 2.00 2.54 2.28
0.60 0.65 0.68 0.72 0.78 0.83 0.85 0.87 0.88 0.87 0.87 0.82 0.78 0.76 0.73 0.74 0.78 0.74 0.72 0.70 0.75 0.76 0.71 0.66 0.69 0.89 1.01 1.09 1.03 0.93 1.04 1.13 1.06 1.03 1.05 1.04 1.05 1.09 1.18 1.31 1.66 2.42 2.77
0.55 0.62 0.66 0.67 0.69 0.71 0.74 0.78 0.80 0.78 0.76 0.72 0.67 0.66 0.63 0.62 0.66 0.67 0.69 0.72 0.79 0.74 0.67 0.62 0.66 0.86 0.89 0.90 0.87 0.94 1.11 1.11 0.99 1.13 1.22 1.21 1.18 1.18 1.21 1.28 1.41 1.64 1.95
0.52 0.58 0.61 0.61 0.62 0.66 0.67 0.69 0.68 0.66 0.65 0.63 0.61 0.59 0.56 0.56 0.61 0.68 0.69 0.75 0.80 0.74 0.67 0.73 0.77 0.79 0.76 0.75 0.86 1.00 0.99 0.90 1.04 1.28 1.32 1.26 1.27 1.35 1.41 1.45 1.43 1.47 1.52
0.50 0.51 0.54 0.57 0.55 0.55 0.58 0.62 0.64 0.63 0.62 0.60 0.59 0.58 0.54 0.53 0.55 0.58 0.65 0.68 0.71 0.73 0.74 0.74 0.71 0.70 0.69 0.72 0.80 0.82 0.83 0.93 1.18 1.37 1.39 1.33 1.34 1.44 1.54 1.63 1.74 1.70 1.71
0.45 0.46 0.46 0.48 0.50 0.50 0.50 0.54 0.59 0.60 0.65 0.69 0.68 0.66 0.64 0.60 0.58 0.68 0.73 0.71 0.73 0.75 0.75 0.68 0.63 0.62 0.63 0.64 0.68 0.71 0.79 0.94 1.10 1.17 1.35 1.42 1.41 1.46 1.55 1.66 1.82 1.84 1.78
0.39 0.41 0.43 0.44 0.45 0.47 0.48 0.47 0.51 0.54 0.60 0.65 0.70 0.72 0.69 0.69 0.71 0.72 0.72 0.76 0.80 0.82 0.79 0.71 0.66 0.64 0.66 0.68 0.71 0.74 0.79 0.93 1.11 1.30 1.43 1.55 1.64 1.68 1.74 1.72 1.76 1.77 1.66
0.36 0.38 0.39 0.40 0.42 0.45 0.46 0.46 0.46 0.45 0.47 0.51 0.58 0.65 0.69 0.74 0.73 0.71 0.72 0.74 0.73 0.78 0.74 0.71 0.71 0.72 0.75 0.77 0.80 0.86 0.90 0.96 1.22 1.47 1.60 1.69 1.81 1.86 1.84 1.75 1.62 1.50 1.34
0.31 0.34 0.36 0.35 0.37 0.41 0.43 0.46 0.48 0.48 0.45 0.44 0.49 0.58 0.64 0.67 0.69 0.70 0.72 0.68 0.62 0.62 0.67 0.75 0.82 0.85 0.86 0.88 0.92 1.02 1.10 1.16 1.32 1.52 1.63 1.72 1.88 1.96 1.82 1.58 1.39 1.28 1.18
0.27 0.28 0.31 0.33 0.34 0.38 0.40 0.42 0.46 0.47 0.47 0.44 0.42 0.47 0.55 0.60 0.64 0.67 0.66 0.58 0.56 0.58 0.64 0.75 0.83 0.89 0.93 0.96 1.01 1.12 1.27 1.41 1.49 1.66 1.75 1.83 1.91 1.89 1.62 1.28 1.08 0.96 0.96
0.27 0.31 0.31 0.30 0.32 0.34 0.36 0.38 0.40 0.43 0.45 0.44 0.43 0.43 0.47 0.54 0.55 0.54 0.54 0.56 0.57 0.58 0.62 0.71 0.77 0.85 0.96 1.06 1.14 1.25 1.40 1.47 1.55 1.67 1.77 1.81 1.71 1.59 1.39 1.09 0.95 0.95 0.90
0.28 0.29 0.33 0.31 0.29 0.31 0.34 0.36 0.39 0.42 0.43 0.42 0.41 0.46 0.60 0.63 0.57 0.51 0.53 0.55 0.59 0.63 0.66 0.73 0.79 0.87 0.99 1.13 1.26 1.33 1.42 1.48 1.57 1.69 1.69 1.57 1.42 1.25 1.04 0.99 0.94 0.92 0.92
0.29 0.31 0.31 0.32 0.32 0.33 0.37 0.39 0.41 0.43 0.41 0.40 0.37 0.41 0.54 0.52 0.48 0.48 0.49 0.51 0.54 0.57 0.62 0.71 0.76 0.81 1.06 1.37 1.61 1.68 1.57 1.48 1.50 1.57 1.49 1.28 1.11 1.00 0.96 0.98 0.96 0.95 0.94
0.29 0.31 0.32 0.33 0.35 0.41 0.42 0.39 0.40 0.41 0.41 0.39 0.39 0.39 0.42 0.45 0.44 0.43 0.45 0.46 0.47 0.50 0.52 0.61 0.71 0.74 0.88 1.25 1.63 1.99 2.09 1.86 1.69 1.68 1.66 1.41 1.13 1.03 1.04 1.04 0.98 0.98 0.91
0.30 0.31 0.34 0.35 0.37 0.40 0.41 0.41 0.41 0.41 0.41 0.40 0.40 0.40 0.41 0.43 0.43 0.40 0.41 0.44 0.46 0.46 0.49 0.56 0.65 0.73 0.87 1.20 1.51 1.70 1.87 1.98 2.04 1.97 1.84 1.68 1.35 1.10 1.06 1.03 0.93 0.89 0.88
0.32 0.35 0.36 0.38 0.39 0.40 0.42 0.42 0.41 0.41 0.42 0.41 0.41 0.42 0.41 0.41 0.40 0.39 0.38 0.41 0.43 0.43 0.42 0.49 0.61 0.75 0.92 1.16 1.41 1.59 1.68 1.72 1.67 1.62 1.56 1.45 1.24 1.03 1.00 0.99 0.91 0.86 0.84
0.34 0.37 0.38 0.39 0.40 0.41 0.42 0.42 0.41 0.40 0.41 0.40 0.40 0.41 0.42 0.42 0.41 0.40 0.40 0.41 0.42 0.40 0.39 0.42 0.52 0.70 0.91 1.11 1.28 1.50 1.55 1.39 1.15 1.05 1.15 1.24 1.14 0.97 0.94 0.99 0.91 0.87 0.85